Home > Weather > Daraa > Past weeks

Flag for Syria Weather for the Past 2 Weeks in Daraa, Syria

Now
41 °F

Fog.


Feels Like: 41 °F
Forecast: 39 / 60 °F
Wind: No wind

Location: Amman Airport

Current Time: Feb 9, 2016 at 2:35:04 AM

Latest Report: Feb 9, 2016 at 2:00 AM


Visibility: 3 mi

Pressure: 30.27 "Hg (28.41 "Hg at 517m altitude)

Humidity: 93%

Dew point: 39 °F

Location of DaraaLocation

Historic Weather in Daraa — Graph

°F

Daraa Temperature Yesterday

Maximum temperature yesterday: 50 °F (at 12:00 PM)
Minimum temperature yesterday: 41 °F (at 12:00 AM)
Average temperature yesterday: 46 °F

High & Low Weather Summary for the Past Weeks

 TemperatureHumidityPressure
High64 °F (Feb 4, 2:00 PM)100% (Jan 25, 6:00 AM)30.42 "Hg (Jan 25, 6:00 AM)
Low28 °F (Jan 28, 5:00 AM)16% (Feb 1, 3:00 PM)29.89 "Hg (Feb 7, 4:00 AM)
Average44 °F68%30.18 "Hg
* Reported Jan 25 1:00 AM — Feb 9 1:00 AM, Daraa, Weather by CustomWeather, © 2016

Note: Actual official high and low records may vary slightly from our data, if they occured in-between our weather recording intervals... More about our weather records

Advertising

Daraa Weather History for the Previous 24 Hours

 ConditionsComfort  
Time TempWeatherWind HumidityBarometerVisibility
1:00 AM
Tue, Feb 9
43 °FPassing clouds.No wind71%30.24 "Hg3 mi
12:00 AM43 °FPassing clouds.No wind71%30.24 "Hg3 mi
11:00 PM
Mon, Feb 8
45 °FPassing clouds.No wind66%30.24 "Hg3 mi
10:00 PM45 °FPassing clouds.5 mph87%30.21 "Hg3 mi
9:00 PM46 °FPassing clouds.5 mph82%30.21 "Hg3 mi
8:00 PM46 °FPassing clouds.5 mph82%30.21 "Hg3 mi
7:00 PM46 °FPassing clouds.5 mph82%30.21 "Hg3 mi
6:00 PM46 °FPartly cloudy.8 mph82%30.21 "Hg3 mi
5:00 PM48 °FPartly sunny.6 mph76%30.18 "Hg3 mi
4:00 PM50 °FBroken clouds.6 mph62%30.18 "Hg3 mi
3:00 PM50 °FBroken clouds.6 mph62%30.18 "Hg3 mi
2:00 PM50 °FScattered clouds.8 mph67%30.18 "Hg3 mi
1:00 PM50 °FScattered clouds.12 mph58%30.18 "Hg3 mi
12:00 PM50 °FScattered clouds.12 mph58%30.18 "Hg3 mi
11:00 AM46 °FScattered clouds.10 mph76%30.21 "Hg3 mi
10:00 AM46 °FScattered clouds.10 mph71%30.18 "Hg3 mi
9:00 AM45 °FScattered clouds.8 mph81%30.15 "Hg3 mi
8:00 AM43 °FHaze.7 mph81%30.15 "Hg3 mi
7:00 AM43 °FFog.5 mph87%30.12 "Hg3 mi
6:00 AM43 °FFog.5 mph87%30.12 "Hg2 mi
5:00 AM43 °FFog.6 mph81%30.12 "Hg3 mi
4:00 AM43 °FLight rain. Passing clouds.5 mph93%30.09 "Hg3 mi
3:00 AM43 °FLight rain. Partly cloudy.7 mph93%30.09 "Hg3 mi
2:00 AM43 °FLight rain. Passing clouds.5 mph93%30.09 "Hg3 mi
Weather by CustomWeather, © 2016

See weather overviewHow to use our weather pages